Tracking 19193 objects as of 24-Jun-2018
HD Live streaming from Space Station
objects crossing your sky now

ARIANE 5 R/B

Track ARIANE 5 R/B now!


NORAD ID: 39218
Int'l Code: 2013-038D
Perigee: 235.2 km
Apogee: 32,391.8 km
Inclination: 3.3 °
Period: 566.7 minutes
Semi major axis: 22684 km
RCS: Unknown
Launch date: July 25, 2013
Source: France (FR)
Launch site: FRENCH GUIANA (FRGUI)

Note: This is a ROCKET BODY
aabbcc
Your satellite tracking list
Your tracking list is empty




NASA's NSSDC Master Catalog

Two Line Element Set (TLE):
1 39218U 13038D   18174.69247273 +.00001482 +00000-0 +22101-3 0  9993
2 39218 003.2928 351.1890 7087785 334.3741 003.0155 02.54102000043468
Source of the keplerian elements: AFSPC